Location: Guémene
(48.0670°N, 3.2027°W)
Time: 01:10:53
(UTC+00:00)

Daily predictions for brighter satellites

Satellite Brightness Start Highest point End
(mag) Time Altitude Azimuth Time Altitude Azimuth Time Altitude Azimuth
Cosmos 2322 Rocket 3.8 00:00:42 10° WSW 00:05:39 31° NW 00:10:38 10° NNE
USA 306 4.3 00:07:12 23° ESE 00:07:12 23° ESE 00:09:30 10° ENE
Lacrosse 5 4.1 00:07:00 11° ESE 00:07:00 11° ESE 00:07:34 10° ESE
H-2A R/B 4.2 00:03:36 10° N 00:07:31 44° WNW 00:08:45 34° WSW
Cosmos 371 Rocket 4.4 00:06:51 29° ESE 00:07:44 31° ESE 00:11:59 10° NE
Cosmos 1844 Rocket 4.0 00:03:43 10° NW 00:08:13 25° WSW 00:09:35 23° SW
Cosmos 1461 2.8 00:05:28 10° NW 00:09:37 71° SW 00:10:09 62° S
Cosmos 2322 3.7 00:07:23 36° SSW 00:09:50 87° WNW 00:15:36 10° NNE
USA 307 4.4 00:11:14 22° ESE 00:11:14 22° ESE 00:13:28 10° ENE
Cosmos 2333 Rocket 2.4 00:07:16 28° SW 00:10:14 66° WNW 00:15:55 10° NNE
Cosmos 220 Rocket 3.8 00:11:12 60° SSE 00:11:45 69° ESE 00:15:56 10° NNE
ATLAS CENTAUR R/B 2.5 00:09:13 10° NW 00:13:35 34° WSW 00:13:49 34° WSW
ASTEX 1 3.4 00:11:41 10° N 00:16:37 72° E 00:18:02 46° SSE
SL-19 R/B 3.9 00:19:09 68° N 00:19:09 68° N 00:21:46 10° NNW
USA 267 3.2 00:17:02 22° SE 00:21:28 73° SW 00:28:03 10° WNW
NOSS 2-2 (C) 4.3 00:16:54 10° NW 00:21:50 79° NE 00:26:47 19° SE
Cosmos 1674 Rocket 3.6 00:23:08 52° SSE 00:23:58 65° E 00:28:16 10° NNE
USA 229 DEB 3.9 00:17:24 10° NW 00:24:46 89° NE 00:30:40 19° SE
USA 229 3.9 00:17:31 10° NW 00:24:52 88° NE 00:30:48 19° SE
S3M 4.2 00:24:09 34° SSE 00:26:56 63° E 00:33:14 10° NNE
Cosmos 2219 Rocket 2.5 00:26:28 29° SW 00:29:19 61° WNW 00:34:52 10° NNE
Cosmos 2221 Rocket 3.5 00:28:33 53° SSW 00:29:32 77° W 00:33:58 10° N
Cosmos 1553 Rocket 3.9 00:28:15 37° SSW 00:30:50 82° W 00:37:05 10° N
NOSS 2-2 (E) 4.3 00:28:13 10° NW 00:33:21 76° SW 00:37:14 27° SSE
Cosmos 2150 Rocket 4.2 00:32:32 41° SSE 00:34:01 56° ESE 00:39:04 10° NNE
Cosmos 494 Rocket 3.9 00:30:04 10° NNW 00:35:12 77° WSW 00:36:50 44° S
Cosmos 1048 Rocket 3.9 00:30:41 10° NNW 00:35:50 70° WSW 00:37:21 45° S
Cosmos 1707 3.8 00:35:39 31° W 00:36:25 34° WNW 00:39:59 10° N
Meteor 1-16 Rocket 4.3 00:30:56 10° NNW 00:36:55 89° W 00:39:24 37° S
CZ-2D R/B 4.2 00:34:36 10° NE 00:38:02 17° E 00:40:53 12° ESE
Cosmos 1378 Rocket 3.5 00:37:53 54° S 00:38:53 88° E 00:43:21 10° N
ERS-2 3.8 00:37:17 10° N 00:40:16 24° WNW 00:41:16 21° W
USA 308 3.4 00:40:45 42° SE 00:40:45 42° SE 00:44:27 10° ENE
Cosmos 546 4.5 00:40:30 67° SW 00:40:57 80° SSE 00:44:52 10° ENE
Cosmos 1300 3.4 00:39:22 10° N 00:43:03 47° ENE 00:43:56 38° ESE
Okean 2 4.0 00:42:41 39° WSW 00:43:32 45° WNW 00:47:30 10° N
USA 290 2.8 00:43:29 47° WNW 00:43:35 48° WNW 00:46:44 10° NNE
Cosmos 1125 Rocket 3.5 00:43:32 43° S 00:45:12 72° ESE 00:50:24 10° NNE
NOSS 0 Rocket 3.9 00:45:00 37° SSW 00:47:38 74° ESE 00:53:52 10° NNE
Cosmos 1238 Rocket 3.3 00:48:14 10° NNW 00:50:31 33° WNW 00:50:31 33° WNW
NOSS 3-1 (A) 4.2 00:43:59 10° NW 00:51:21 59° WSW 00:56:19 27° S
SL-14 R/B 3.2 00:53:24 60° SSE 00:54:00 77° E 00:57:53 10° NNE
ERBS 3.5 00:55:13 28° E 00:55:13 28° E 00:57:02 10° ENE
CZ-4C R/B 3.3 00:48:30 10° NW 00:55:31 49° WSW 00:59:25 30° S
Cosmos 1975 Rocket 4.1 00:56:40 28° SE 00:58:13 37° E 01:02:20 10° NNE
Cosmos 2237 Rocket 2.3 00:56:44 38° S 00:58:55 68° ESE 01:04:37 10° NNE
PSLV R/B 4.2 00:55:44 10° N 00:59:58 49° WNW 01:01:26 35° WSW
Cosmos 1242 Rocket 4.3 00:57:16 10° NW 00:59:54 21° W 00:59:54 21° W
Cosmos 2151 Rocket 4.4 00:56:32 10° NNW 01:00:31 35° W 01:01:19 32° WSW
Cosmos 1025 Rocket 4.3 01:00:08 24° SE 01:01:44 31° E 01:05:33 10° NNE
COSMOS 2428 3.4 00:59:51 24° WSW 01:03:07 49° NW 01:08:38 10° NNE
USA 305 2.7 01:02:25 55° SSW 01:03:10 70° SSE 01:07:21 10° ENE
Cosmos 405 Rocket 3.1 01:03:21 44° WSW 01:03:57 48° WNW 01:07:39 10° N
Resurs 1-4 Rocket 3.5 00:59:42 10° NE 01:04:14 28° E 01:07:01 18° SE
Okean 2 Rocket 4.3 01:00:38 10° NNW 01:04:32 29° W 01:05:25 27° WSW
SME Rocket 3.9 01:03:28 24° SE 01:05:48 52° ENE 01:11:00 10° N
Meteor 2-12 Rocket 4.4 00:59:55 10° NNW 01:06:00 80° W 01:08:52 33° S
Cosmos 1745 Rocket 4.2 01:00:55 10° NNW 01:07:01 58° W 01:09:40 33° SSW
Cosmos 1437 Rocket 3.1 01:05:02 10° NNW 01:08:37 44° W 01:08:52 43° WSW
NOSS 2-2 (D) 4.5 01:04:17 10° NW 01:09:20 56° SW 01:12:49 28° S
Cosmos 1908 4.5 01:06:23 10° NNW 01:09:36 27° W 01:09:47 27° W
Cosmos 332 Rocket 4.0 01:08:19 39° SSE 01:09:53 58° ESE 01:14:35 10° NNE
Cosmos 2360 Rocket 4.4 01:06:37 10° W 01:10:35 19° NW 01:14:35 10° N
Cosmos 1626 3.5 01:11:57 24° W 01:12:39 26° WNW 01:15:47 10° NNW
Cosmos 1943 Rocket 2.9 01:07:31 10° NNW 01:13:06 52° ENE 01:18:36 10° SE
Lacrosse 5 rocket 3.0 01:14:37 18° ESE 01:14:37 18° ESE 01:17:15 10° E
Cosmos 2298 Rocket 4.2 01:15:02 33° SW 01:17:23 64° WNW 01:22:41 10° NNE
GP-B 3.1 01:13:27 10° N 01:17:56 82° E 01:19:29 40° S
ADEOS II 4.0 01:14:04 10° NE 01:17:56 20° E 01:21:40 10° SE
Cosmos 1867 4.4 01:14:21 18° WSW 01:18:09 46° NW 01:23:27 10° NNE
Cosmos 1953 3.0 01:16:03 10° NNW 01:19:48 39° W 01:20:22 37° WSW
Thor Agena Rocket 3.7 01:16:34 10° NNE 01:21:52 69° ESE 01:24:18 32° S
Cosmos 1544 Rocket 4.5 01:22:26 10° N 01:26:41 44° ENE 01:29:32 19° SE
USA 215 4.0 01:21:57 10° NE 01:28:14 52° NNW 01:34:33 10° W
Cosmos 2278 Rocket 2.7 01:23:36 10° NW 01:28:52 40° WSW 01:30:39 32° SSW
MOS 1 Rocket 4.5 01:33:16 10° SE 01:37:09 35° ENE 01:41:07 10° N
NPP 4.4 01:33:06 10° NNE 01:38:16 44° E 01:41:35 21° SSE
EO 1 Delta rocket 4.0 01:34:49 10° N 01:39:27 68° WNW 01:41:51 31° SSW
Okean 1 Rocket 4.3 01:36:49 10° NNW 01:40:32 27° W 01:41:32 24° WSW
Cosmos 2369 Rocket 3.7 01:36:52 10° NNW 01:42:04 37° NE 01:47:13 10° ESE
USA 306 3.0 01:42:53 25° WSW 01:45:13 71° NNW 01:49:24 10° ENE
USA 32 4.5 01:42:57 29° SW 01:45:19 49° W 01:50:25 10° N
SL-16 R/B 2.6 01:44:11 26° S 01:47:13 56° ESE 01:52:46 10° NE
Cosmos 371 Rocket 4.3 01:45:30 22° WSW 01:48:03 38° WNW 01:52:35 10° N
Lacrosse 5 2.1 01:46:10 32° SSW 01:48:20 56° SE 01:53:20 10° ENE
USA 307 2.9 01:46:58 26° WSW 01:49:16 74° NNW 01:53:28 10° ENE
Cosmos 1980 4.2 01:47:57 23° WSW 01:51:20 51° NW 01:56:51 10° NNE
SL-16 R/B 2.7 01:45:54 12° SSE 01:51:40 77° ENE 01:57:56 10° NNW
Cosmos 2074 Rocket 4.1 01:47:35 10° N 01:53:56 80° E 01:59:10 16° SSE
Meteor 2-10 Rocket 4.1 01:50:05 10° NNW 01:55:26 44° W 01:57:59 27° SSW
Cosmos 304 Rocket 4.4 01:54:13 25° WSW 01:56:39 47° WNW 02:01:21 10° NNE
Cosmos 1269 Rocket 4.0 01:52:07 10° NNW 01:57:20 63° WSW 02:00:38 23° S
Cosmos 2084 Rocket 3.0 01:56:07 37° SW 01:57:33 88° NW 02:01:23 10° NE
AQUA 4.4 01:57:09 10° NNE 02:01:50 52° E 02:04:57 20° S
USA 267 4.3 02:04:19 22° SW 02:05:14 22° SW 02:10:11 10° WNW
Cosmos 1455 2.0 02:02:50 10° N 02:06:34 87° E 02:08:34 26° S
Cosmos 2184 Rocket 4.0 02:03:43 10° N 02:10:01 83° W 02:15:07 16° S
Meteor 1-24 Rocket 3.7 02:07:38 25° SSW 02:11:01 73° WNW 02:16:28 10° N
COSMOS 2455 3.4 02:08:44 20° S 02:12:42 51° ESE 02:18:31 10° NE
Cosmos 2228 4.1 02:09:39 10° N 02:13:51 44° ENE 02:17:59 10° SSE
Cosmos 2219 Rocket 4.5 02:11:14 10° WNW 02:14:28 15° NW 02:17:44 10° N
Cosmos 1271 Rocket 3.2 02:10:48 10° N 02:14:36 60° ENE 02:18:01 13° SSE
Cosmos 1455 Rocket 4.1 02:13:56 10° NNW 02:17:51 31° W 02:19:32 23° SW
CZ-2D R/B 2.1 02:13:19 10° NNE 02:18:42 76° WNW 02:22:12 22° SSW
USA 308 3.5 02:16:29 13° W 02:20:04 54° NNW 02:24:11 10° ENE
ATLAS 5 CENTAUR R/B 4.4 02:19:44 10° WNW 02:23:59 15° W 02:25:30 13° WSW
Cosmos 1536 Rocket 3.5 02:25:14 21° S 02:28:11 88° E 02:32:36 10° N
Cosmos 292 Rocket 4.0 02:25:27 19° S 02:28:48 66° ESE 02:33:33 10° NNE
ERBS 3.6 02:27:14 13° W 02:29:33 31° NNW 02:32:20 10° NE
SAR-Lupe-2 3.5 02:26:49 10° NNE 02:30:26 85° WNW 02:32:32 24° SSW
CRYOSAT 2 4.3 02:27:32 17° S 02:31:16 73° W 02:36:10 10° N
Meteor 2-5 Rocket 4.4 02:32:42 19° SW 02:36:30 42° WNW 02:41:52 10° N
Genesis I 4.4 02:35:15 10° NNW 02:39:13 48° NE 02:43:06 10° ESE
Cosmos 1025 Rocket 4.3 02:37:00 17° WSW 02:39:20 27° WNW 02:43:01 10° NNW
Cosmos 1943 4.2 02:36:10 11° S 02:41:20 42° ESE 02:46:39 10° NE
USA 305 4.0 02:38:58 10° W 02:42:58 42° NNW 02:46:58 10° ENE
Cosmos 2237 Rocket 3.8 02:38:45 10° WSW 02:43:30 26° NW 02:48:17 10° N
DEBRIS 4.2 02:29:00 10° W 02:43:33 85° N 02:47:23 10° E
Resurs 1-4 Rocket 2.7 02:39:12 10° N 02:44:13 46° WNW 02:48:05 16° SW
Nadezhda 1 Rocket 4.0 02:39:52 15° SSW 02:45:16 77° W 02:51:35 10° N
Helios 1B rocket 4.3 02:43:45 10° NE 02:47:11 26° E 02:50:37 10° SSE
Cosmos 1606 Rocket 3.9 02:45:26 10° N 02:49:51 69° E 02:54:12 10° SSE
Lacrosse 5 rocket 1.3 02:50:08 17° WSW 02:53:05 78° NW 02:57:12 10° NE
Cosmos 1943 Rocket 3.1 02:51:45 10° NW 02:56:34 29° WSW 03:00:49 12° SSW
UNK 4.5 02:53:54 16° SSW 02:57:04 34° W 03:01:16 10° NNW
IDEFIX/ARIANE 42P 2.6 02:51:49 10° NNE 02:57:07 76° WNW 03:01:53 13° SSW
Gblst 52 Del rocket 4.4 02:51:31 10° WNW 02:57:18 75° NNE 03:02:48 10° ESE
ADEOS II 2.2 02:52:51 10° N 02:58:03 63° WNW 03:02:36 14° SSW
Cosmos 614 Rocket 4.5 02:55:01 10° NW 02:59:53 41° WSW 03:04:44 10° S
Cosmos 2297 4.4 02:57:45 10° NW 03:02:51 33° WSW 03:07:55 10° SSW
Cosmos 1703 3.4 02:59:56 15° SSW 03:03:05 59° WNW 03:06:59 10° N
Cosmos 2263 4.2 02:57:54 10° NNW 03:03:37 83° WSW 03:09:20 10° SSE
Helios 1A 3.4 03:01:51 11° S 03:05:42 43° W 03:09:46 10° NNW
COSMOS 2441 4.4 03:01:24 10° NNE 03:06:17 85° ESE 03:11:08 10° SSW
EO 1 Del DPAF 3.4 03:04:10 10° N 03:07:34 48° WNW 03:10:23 14° SW
IRS-1D 3.7 03:03:50 10° NNE 03:09:13 86° ESE 03:14:30 10° SSW
BREEZE-M DEB (TANK) 3.7 03:00:13 10° W 03:09:53 75° N 03:13:03 10° E
Cosmos 2366 rocket 4.3 03:04:44 10° N 03:10:55 72° E 03:17:05 10° SSE
Cosmos 2251 Rocket 3.7 03:06:29 10° NNW 03:11:36 53° WSW 03:16:43 10° S
Lacrosse 4 Rocket 4.0 03:10:01 10° SE 03:12:30 15° ESE 03:14:57 10° ENE
ALOS 3.8 03:09:45 10° NNE 03:13:59 33° E 03:18:12 10° SSE
Cosmos 2341 Rocket 4.1 03:08:10 10° NNW 03:14:34 79° W 03:20:57 10° S
MOS 1 Rocket 4.3 03:12:32 13° SW 03:15:30 24° W 03:19:03 10° NW
Cosmos 1190 Rocket 4.4 03:10:42 10° NNW 03:16:00 71° ENE 03:21:18 10° SSE
SL-8 Rocket 4.1 03:11:11 10° N 03:17:33 88° W 03:23:52 10° S
Cosmos 1892 3.9 03:20:46 10° SSE 03:24:18 40° E 03:27:52 10° NNE
Cosmos 1408 3.6 03:21:02 10° SSE 03:24:31 46° E 03:27:59 10° NNE
USA 306 4.3 03:21:22 10° WNW 03:25:15 36° N 03:29:09 10° ENE
Cosmos 2369 Rocket 2.6 03:20:55 10° NW 03:26:09 42° WSW 03:31:22 10° S
Cosmos 1892 Rocket 3.6 03:23:25 10° S 03:27:53 89° E 03:32:24 10° N
Cosmos 1726 Rocket 3.6 03:24:38 10° NNW 03:29:00 61° W 03:33:19 10° S
Cosmos 1656 Rocket 3.8 03:23:59 10° NW 03:29:11 48° WSW 03:34:22 10° S
USA 307 4.3 03:25:25 10° WNW 03:29:19 37° N 03:33:14 10° ENE
CZ-2C R/B 3.5 03:24:33 10° NNE 03:29:30 47° E 03:34:18 10° S
Lacrosse 5 2.8 03:26:33 10° W 03:31:28 46° NNW 03:36:23 10° NE
SL-16 R/B 3.5 03:26:44 10° WSW 03:31:40 30° NW 03:36:39 10° NNE
Meteor 1-21 Rocket 4.5 03:28:45 10° SSW 03:34:15 56° WNW 03:39:45 10° N
MOS 1-B Rocket 3.8 03:29:29 10° S 03:35:04 74° WSW 03:40:56 10° NNW
SL-16 R/B 3.9 03:31:26 10° SW 03:35:55 21° W 03:40:28 10° NW
